Weather History for Amman Airport, Jordan

Change the Weather History Date:

Friday, March 8, 2013

  Actual Average Record
Temperature  
Mean Temperature 56 °F -  
Max Temperature 68 °F 63 °F - ()
Min Temperature 44 °F 46 °F - ()
Degree Days  
Heating Degree Days 9    
Growing Degree Days 6 (Base 50)    
Moisture  
Dew Point 13 °F    
Average Humidity 17    
Maximum Humidity 30    
Minimum Humidity 5    
Precipitation  
Precipitation 0.00 in 0.06 in - ()
Sea Level Pressure  
Sea Level Pressure 29.98 in    
Wind  
Wind Speed 4 mph ()    
Max Wind Speed 16 mph    
Max Gust Speed -    
Visibility 3.1 miles    
Events      
T = Trace of Precipitation, MM = Missing Value Source: Averaged Metar Reports

Daily Weather History Graph

Daily Weather History Graph

Search for Another Location

Airport:

Trip Planner

Search our weather history database for the weather conditions in past years. The results will help you decide how hot, cold, wet, or windy it might be!

Date:

Astronomy

Mar. 08, 2013 Rise Set
Actual Time 6:55 AM EEST 6:39 PM EEST
Civil Twilight 6:30 AM EEST 7:03 PM EEST
Nautical Twilight 6:02 AM EEST 7:31 PM EEST
Astronomical Twilight 5:34 AM EEST 8:00 PM EEST
Moon 4:13 AM EEST (3/8) 3:20 PM EEST (3/8)
Length of Visible Light 12h 32m
Length of Day
11h 43m
Waning Crescent, 14% of the Moon is Illuminated
Mar 8
Waning Crescent
Mar 11
New
Mar 19
First Quarter
Mar 27
Full
Apr 3
Last Quarter

Hourly Weather History & Observations

Time (EEST) Temp. Windchill Dew Point Humidity Pressure Visibility Wind Dir Wind Speed Gust Speed Precip Events Conditions
12:00 AM 50 °F - 11 °F 10% 30.12 in 3 mi Calm Calm - -   Haze
12:00 AM 50.0 °F - 10.4 °F 20% 30.12 in 3.1 mi Calm Calm - N/A   Haze
1:00 AM 48.2 °F - 12.2 °F 24% 30.09 in 3.1 mi Calm Calm - N/A   Haze
2:00 AM 50.0 °F - 10.4 °F 20% 30.09 in 3.1 mi Calm Calm - N/A   Haze
3:00 AM 47 °F - 12 °F 13% 30.08 in 3 mi Calm Calm - -   Haze
3:00 AM 46.4 °F - 12.2 °F 25% 30.09 in 3.1 mi Calm Calm - N/A   Haze
4:00 AM 46.4 °F - 12.2 °F 25% 30.06 in 3.1 mi Calm Calm - N/A   Haze
5:00 AM 44.6 °F - 10.4 °F 25% 30.04 in 3.1 mi Calm Calm - N/A   Haze
6:00 AM 44 °F - 15 °F 18% 30.03 in 3 mi ENE 4.6 mph - -   Haze
6:00 AM 44.6 °F 42.2 °F 14.0 °F 29% 30.04 in 3.1 mi ENE 4.6 mph - N/A   Haze
7:00 AM 44.6 °F 42.2 °F 12.2 °F 27% 30.04 in 3.1 mi ESE 4.6 mph - N/A   Haze
9:00 AM 48.2 °F - 5.0 °F 17% 30.04 in 3.1 mi South 11.5 mph - N/A   Haze
10:00 AM 51.8 °F - 8.6 °F 18% 30.01 in 3.1 mi ESE 16.1 mph - N/A   Haze
11:00 AM 55.4 °F - 8.6 °F 15% 30.01 in 3.1 mi South 11.5 mph - N/A   Haze
12:00 PM 59 °F - 8 °F 5% 29.98 in 3 mi SSE 11.5 mph - -   Haze
12:00 PM 59.0 °F - 6.8 °F 13% 30.01 in 3.1 mi SSE 11.5 mph - N/A   Haze
1:00 PM 62.6 °F - 10.4 °F 13% 29.98 in 3.1 mi SE 11.5 mph - N/A   Haze
2:00 PM 64.4 °F - 12.2 °F 13% 29.92 in 3.1 mi SE 13.8 mph - N/A   Haze
3:00 PM 66 °F - 18 °F 7% 29.85 in 3 mi SE 9.2 mph - -   Haze
3:00 PM 66.2 °F - 17.6 °F 15% 29.89 in 3.1 mi SE 9.2 mph - N/A   Haze
4:00 PM 68.0 °F - 14.0 °F 12% 29.86 in 3.1 mi ESE 9.2 mph - N/A   Haze
5:00 PM 68.0 °F - 17.6 °F 15% 29.86 in 3.1 mi SE 11.5 mph - N/A   Haze
6:00 PM 59 °F - 8 °F 5% 29.98 in 3 mi SSE 11.5 mph - -   Haze
6:00 PM 66.2 °F - 17.6 °F 15% 29.86 in 3.1 mi ESE 9.2 mph - N/A   Haze
7:00 PM 64.4 °F - 17.6 °F 16% 29.86 in 3.1 mi ESE 9.2 mph - N/A   Haze
8:00 PM 60.8 °F - 17.6 °F 19% 29.89 in 3.1 mi East 5.8 mph - N/A   Haze
9:00 PM 59 °F - 17 °F 10% 29.81 in 3 mi Calm Calm - -   Haze
9:00 PM 59.0 °F - 17.6 °F 20% 29.89 in 3.1 mi Calm Calm - N/A   Haze
10:00 PM 55.4 °F - 21.2 °F 26% 29.89 in 3.1 mi Calm Calm - N/A   Haze
11:00 PM 53.6 °F - 23.0 °F 30% 29.89 in 3.1 mi Calm Calm - N/A   Haze